John James Audubon — WDE8037 — position and weather

sailwx.info

Track history (hours):
 
Tides and Currents Weather Stations Pressure Air Temp Water Temp Dewpoint Dewpoint Depression Visibility Wind Speed Wind Dir Waves Ship Positions

John James Audubon

Owner: Statue Cruises, Jersey City, NJ. More information available from US FCC via Universal Licensing System and Coast Guard Vessel Documentation Center.

Last reported at 2017-Mar-06 14:31 UTC. Time now 2017-Apr-29 05:46 UTC.
Position N 40°48' W 073°50'.
Warning: this ship's position is 53 days out of date.

Length 37 m.

Type: Ship. MMSI: 367400770.

Date/timePositionNaut miles runAvg speedWind from/ knotsBaromVisibWave heightAir tempDewpointWater temp
2017-Mar-06 14:31N 40°48' W 073°50'8 8.0
2017-Mar-06 13:33N 40°44' W 073°58'2 2.1
2017-Mar-06 12:33N 40°44' W 074°01'0 0.0
2017-Mar-05 22:29N 40°44' W 074°01'2 2.6
2017-Mar-05 21:33N 40°42' W 074°01'1 1.2
2017-Mar-05 20:33N 40°42' W 074°00'0 0.0
2017-Mar-05 19:33N 40°42' W 074°00'1 1.2
2017-Mar-05 18:33N 40°42' W 074°01'1 1.2
2017-Mar-05 17:33N 40°42' W 074°00'0 0.0
2017-Mar-05 16:33N 40°42' W 074°00'1 1.0
2017-Mar-05 15:33N 40°42' W 074°01'1 1.0
2017-Mar-05 14:33N 40°42' W 074°00'2 1.6
2017-Mar-05 13:33N 40°44' W 074°01'0 0.0
2017-Mar-04 23:03N 40°44' W 074°01'2 3.6
2017-Mar-04 22:33N 40°42' W 074°00'1 1.0
2017-Mar-04 21:33N 40°41' W 074°01'1 1.2
2017-Mar-04 20:33N 40°42' W 074°00'0 0.0
2017-Mar-04 19:33N 40°42' W 074°00'1 1.5
2017-Mar-04 18:33N 40°41' W 074°02'1 1.5
2017-Mar-04 17:33N 40°42' W 074°00'0 0.0
2017-Mar-04 16:33N 40°42' W 074°00'1 1.1
2017-Mar-04 15:33N 40°42' W 074°01'1 1.1
2017-Mar-04 14:33N 40°42' W 074°00'2 1.6
2017-Mar-04 13:33N 40°44' W 074°01'0 0.0
2017-Mar-03 22:33N 40°44' W 074°01'3 2.7
2017-Mar-03 21:33N 40°41' W 074°02'2 1.9
2017-Mar-03 20:33N 40°42' W 074°00'0 0.0
2017-Mar-03 19:34N 40°42' W 074°00'2 1.8
2017-Mar-03 18:33N 40°41' W 074°02'2 1.8
2017-Mar-03 17:33N 40°42' W 074°00'0 0.0
2017-Mar-03 16:33N 40°42' W 074°00'2 1.6
2017-Mar-03 15:33N 40°41' W 074°02'2 1.6
2017-Mar-03 14:33N 40°42' W 074°00'2 1.6
2017-Mar-03 13:33N 40°44' W 074°01'0 0.0
2017-Mar-02 22:26N 40°44' W 074°01'2 2.6
2017-Mar-02 21:33N 40°42' W 074°01'1 1.2
2017-Mar-02 20:34N 40°42' W 074°00'0 0.0
2017-Mar-02 19:34N 40°42' W 074°00'1 1.3
2017-Mar-02 18:34N 40°41' W 074°01'1 1.3
2017-Mar-02 17:34N 40°42' W 074°00'0 0.0
2017-Mar-02 16:34N 40°42' W 074°00'1 1.5
2017-Mar-02 15:33N 40°41' W 074°02'1 1.5
2017-Mar-02 14:33N 40°42' W 074°00'2 0.1
2017-Mar-01 22:18N 40°44' W 074°01'2 3.0
2017-Mar-01 21:33N 40°42' W 074°02'1 1.3
2017-Mar-01 20:33N 40°42' W 074°00'0 0.0
2017-Mar-01 19:33N 40°42' W 074°00'1 1.1
2017-Mar-01 18:33N 40°42' W 074°01'1 1.1
2017-Mar-01 17:33N 40°42' W 074°00'0 0.0
2017-Mar-01 16:33N 40°42' W 074°00'1 0.7
2017-Mar-01 15:33N 40°42' W 074°01'1 0.7
2017-Mar-01 14:33N 40°42' W 074°00'2 0.1
2017-Feb-28 22:33N 40°44' W 074°01'2 2.4
2017-Feb-28 21:33N 40°41' W 074°02'1 1.3
2017-Feb-28 20:33N 40°42' W 074°00'0 0.0
2017-Feb-28 19:33N 40°42' W 074°00'1 1.2
2017-Feb-28 18:33N 40°42' W 074°01'1 1.2
2017-Feb-28 17:33N 40°42' W 074°00'0 0.0
2017-Feb-28 16:34N 40°42' W 074°00'1 1.1
2017-Feb-28 15:33N 40°42' W 074°01'1 1.1
2017-Feb-28 14:33N 40°42' W 074°00'2 1.6
2017-Feb-28 13:34N 40°44' W 074°01'0 0.0
2017-Feb-27 22:33N 40°44' W 074°01'3 2.7
2017-Feb-27 21:33N 40°41' W 074°02'2 1.6
2017-Feb-27 20:33N 40°42' W 074°00'0 0.0
2017-Feb-27 19:33N 40°42' W 074°00'1 1.2
2017-Feb-27 18:33N 40°42' W 074°01'1 1.2
2017-Feb-27 17:33N 40°42' W 074°00'0 0.0
2017-Feb-27 16:33N 40°42' W 074°00'1 1.3
2017-Feb-27 15:33N 40°41' W 074°02'1 1.3
2017-Feb-27 14:34N 40°42' W 074°00'2 1.6
2017-Feb-27 13:33N 40°44' W 074°01'  
2017-Feb-24 16:34N 40°44' W 074°01'1 1.0
2017-Feb-24 15:33N 40°45' W 074°01'1 1.0
2017-Feb-24 14:33N 40°44' W 074°01'  
Track history (hours):
 
Tides and Currents Weather Stations Pressure Air Temp Water Temp Dewpoint Dewpoint Depression Visibility Wind Speed Wind Dir Waves Ship Positions

John James Audubon

Owner: Statue Cruises, Jersey City, NJ. More information available from US FCC via Universal Licensing System and Coast Guard Vessel Documentation Center.

Last reported at 2017-Mar-06 14:31 UTC. Time now 2017-Apr-29 05:46 UTC.
Position N 40°48' W 073°50'.
Warning: this ship's position is 53 days out of date.

Length 37 m.

Type: Ship. MMSI: 367400770.

Date/timePositionNaut miles runAvg speedWind from/ knotsBaromVisibWave heightAir tempDewpointWater temp
2017-Mar-06 14:31N 40°48' W 073°50'8 8.0
2017-Mar-06 13:33N 40°44' W 073°58'2 2.1
2017-Mar-06 12:33N 40°44' W 074°01'0 0.0
2017-Mar-05 22:29N 40°44' W 074°01'2 2.6
2017-Mar-05 21:33N 40°42' W 074°01'1 1.2
2017-Mar-05 20:33N 40°42' W 074°00'0 0.0
2017-Mar-05 19:33N 40°42' W 074°00'1 1.2
2017-Mar-05 18:33N 40°42' W 074°01'1 1.2
2017-Mar-05 17:33N 40°42' W 074°00'0 0.0
2017-Mar-05 16:33N 40°42' W 074°00'1 1.0
2017-Mar-05 15:33N 40°42' W 074°01'1 1.0
2017-Mar-05 14:33N 40°42' W 074°00'2 1.6
2017-Mar-05 13:33N 40°44' W 074°01'0 0.0
2017-Mar-04 23:03N 40°44' W 074°01'2 3.6
2017-Mar-04 22:33N 40°42' W 074°00'1 1.0
2017-Mar-04 21:33N 40°41' W 074°01'1 1.2
2017-Mar-04 20:33N 40°42' W 074°00'0 0.0
2017-Mar-04 19:33N 40°42' W 074°00'1 1.5
2017-Mar-04 18:33N 40°41' W 074°02'1 1.5
2017-Mar-04 17:33N 40°42' W 074°00'0 0.0
2017-Mar-04 16:33N 40°42' W 074°00'1 1.1
2017-Mar-04 15:33N 40°42' W 074°01'1 1.1
2017-Mar-04 14:33N 40°42' W 074°00'2 1.6
2017-Mar-04 13:33N 40°44' W 074°01'0 0.0
2017-Mar-03 22:33N 40°44' W 074°01'3 2.7
2017-Mar-03 21:33N 40°41' W 074°02'2 1.9
2017-Mar-03 20:33N 40°42' W 074°00'0 0.0
2017-Mar-03 19:34N 40°42' W 074°00'2 1.8
2017-Mar-03 18:33N 40°41' W 074°02'2 1.8
2017-Mar-03 17:33N 40°42' W 074°00'0 0.0
2017-Mar-03 16:33N 40°42' W 074°00'2 1.6
2017-Mar-03 15:33N 40°41' W 074°02'2 1.6
2017-Mar-03 14:33N 40°42' W 074°00'2 1.6
2017-Mar-03 13:33N 40°44' W 074°01'0 0.0
2017-Mar-02 22:26N 40°44' W 074°01'2 2.6
2017-Mar-02 21:33N 40°42' W 074°01'1 1.2
2017-Mar-02 20:34N 40°42' W 074°00'0 0.0
2017-Mar-02 19:34N 40°42' W 074°00'1 1.3
2017-Mar-02 18:34N 40°41' W 074°01'1 1.3
2017-Mar-02 17:34N 40°42' W 074°00'0 0.0
2017-Mar-02 16:34N 40°42' W 074°00'1 1.5
2017-Mar-02 15:33N 40°41' W 074°02'1 1.5
2017-Mar-02 14:33N 40°42' W 074°00'2 0.1
2017-Mar-01 22:18N 40°44' W 074°01'2 3.0
2017-Mar-01 21:33N 40°42' W 074°02'1 1.3
2017-Mar-01 20:33N 40°42' W 074°00'0 0.0
2017-Mar-01 19:33N 40°42' W 074°00'1 1.1
2017-Mar-01 18:33N 40°42' W 074°01'1 1.1
2017-Mar-01 17:33N 40°42' W 074°00'0 0.0
2017-Mar-01 16:33N 40°42' W 074°00'1 0.7
2017-Mar-01 15:33N 40°42' W 074°01'1 0.7
2017-Mar-01 14:33N 40°42' W 074°00'2 0.1
2017-Feb-28 22:33N 40°44' W 074°01'2 2.4
2017-Feb-28 21:33N 40°41' W 074°02'1 1.3
2017-Feb-28 20:33N 40°42' W 074°00'0 0.0
2017-Feb-28 19:33N 40°42' W 074°00'1 1.2
2017-Feb-28 18:33N 40°42' W 074°01'1 1.2
2017-Feb-28 17:33N 40°42' W 074°00'0 0.0
2017-Feb-28 16:34N 40°42' W 074°00'1 1.1
2017-Feb-28 15:33N 40°42' W 074°01'1 1.1
2017-Feb-28 14:33N 40°42' W 074°00'2 1.6
2017-Feb-28 13:34N 40°44' W 074°01'0 0.0
2017-Feb-27 22:33N 40°44' W 074°01'3 2.7
2017-Feb-27 21:33N 40°41' W 074°02'2 1.6
2017-Feb-27 20:33N 40°42' W 074°00'0 0.0
2017-Feb-27 19:33N 40°42' W 074°00'1 1.2
2017-Feb-27 18:33N 40°42' W 074°01'1 1.2
2017-Feb-27 17:33N 40°42' W 074°00'0 0.0
2017-Feb-27 16:33N 40°42' W 074°00'1 1.3
2017-Feb-27 15:33N 40°41' W 074°02'1 1.3
2017-Feb-27 14:34N 40°42' W 074°00'2 1.6
2017-Feb-27 13:33N 40°44' W 074°01'  
2017-Feb-24 16:34N 40°44' W 074°01'1 1.0
2017-Feb-24 15:33N 40°45' W 074°01'1 1.0
2017-Feb-24 14:33N 40°44' W 074°01'  

Dump ship's entire track history